Toledo Metcalf, OH

10:10 AM EDT on March 28, 2017 (GMT -0400)
Metcalf

Weather History for KTDZ - December, 2012

Change the Weather History Date:

Friday, December 7, 2012

  Actual Average (KTOL) Record (KTOL)
Temperature  
Mean Temperature 41 °F -  
Max Temperature 46 °F 38 °F 62 °F (1951)
Min Temperature 36 °F 26 °F -2 °F (1885)
Degree Days  
Heating Degree Days 24    
Moisture  
Dew Point 40 °F    
Average Humidity 89    
Maximum Humidity 96    
Minimum Humidity 79    
Precipitation  
Precipitation 0.11 in - - ()
Sea Level Pressure  
Sea Level Pressure 29.94 in    
Wind  
Wind Speed 3 mph (SE)    
Max Wind Speed 6 mph    
Max Gust Speed -    
Visibility 4 miles    
Events Rain    
Averages and records for this station are not official NWS values.
T = Trace of Precipitation, MM = Missing Value Source: NWS Daily Summary

Daily Weather History Graph

Daily Weather History Graph

Search for Another Location

Airport or City:

Trip Planner

Search our weather history database for the weather conditions in past years. The results will help you decide how hot, cold, wet, or windy it might be!

Date:

Astronomy

Dec. 07, 2012 Rise Set
Actual Time 7:47 AM EST 5:03 PM EST
Civil Twilight 7:16 AM EST 5:34 PM EST
Nautical Twilight 6:41 AM EST 6:09 PM EST
Astronomical Twilight 6:07 AM EST 6:43 PM EST
Moon 1:01 AM EST (12/7) 1:04 PM EST (12/7)
Length of Visible Light 10h 18m
Length of Day
9h 16m
Last Quarter, 39% of the Moon is Illuminated
Dec 7
Last Quarter
Dec 13
New
Dec 20
First Quarter
Dec 28
Full
Jan 4
Last Quarter

Hourly Weather History & Observations

Time (EST) Temp. Windchill Dew Point Humidity Pressure Visibility Wind Dir Wind Speed Gust Speed Precip Events Conditions
12:53 AM 36.0 °F 32.1 °F 30.9 °F 82% 29.98 in 10.0 mi South 4.6 mph - N/A   Mostly Cloudy
1:53 AM 37.9 °F 35.5 °F 32.0 °F 79% 29.97 in 10.0 mi SSW 3.5 mph - N/A   Overcast
2:53 AM 37.9 °F - 33.1 °F 83% 29.98 in 10.0 mi Calm Calm - N/A   Overcast
3:53 AM 39.0 °F - 34.0 °F 82% 29.98 in 10.0 mi Calm Calm - N/A   Overcast
4:53 AM 39.0 °F 34.8 °F 35.1 °F 86% 29.96 in 10.0 mi SSW 5.8 mph - N/A   Mostly Cloudy
5:53 AM 39.9 °F 35.8 °F 36.0 °F 86% 29.97 in 8.0 mi SW 5.8 mph - N/A   Overcast
7:53 AM 41.0 °F 39.0 °F 37.9 °F 89% 29.99 in 6.0 mi South 3.5 mph - 0.00 in Rain Light Rain
8:53 AM 41.0 °F - 39.0 °F 93% 29.99 in 3.0 mi Calm Calm - 0.01 in   Overcast
9:21 AM 42.8 °F - 39.2 °F 87% 29.99 in 2.5 mi Calm Calm - 0.01 in Rain Light Rain
9:32 AM 42.8 °F 40.1 °F 39.2 °F 87% 29.99 in 3.0 mi SSW 4.6 mph - 0.01 in Rain Light Rain
9:53 AM 42.1 °F 39.2 °F 39.9 °F 92% 30.00 in 3.0 mi SW 4.6 mph - 0.01 in   Overcast
10:53 AM 44.1 °F 40.8 °F 41.0 °F 89% 30.00 in 4.0 mi WSW 5.8 mph - 0.00 in Rain Light Rain
11:53 AM 44.1 °F 41.5 °F 41.0 °F 89% 29.97 in 5.0 mi WSW 4.6 mph - 0.00 in   Overcast
12:11 PM 44.6 °F 42.2 °F 41.0 °F 87% 29.95 in 4.0 mi WSW 4.6 mph - N/A   Overcast
12:53 PM 45.0 °F 43.5 °F 41.0 °F 86% 29.95 in 4.0 mi WSW 3.5 mph - N/A   Overcast
1:00 PM 44.6 °F 42.2 °F 41.0 °F 87% 29.94 in 4.0 mi SW 4.6 mph - N/A   Overcast
1:15 PM 44.6 °F 43.1 °F 42.8 °F 93% 29.94 in 4.0 mi SW 3.5 mph - N/A   Overcast
1:45 PM 46.4 °F 44.3 °F 42.8 °F 87% 29.92 in 4.0 mi SSW 4.6 mph - N/A   Overcast
1:53 PM 46.0 °F 43.1 °F 42.1 °F 86% 29.93 in 4.0 mi SSW 5.8 mph - N/A   Overcast
2:53 PM 46.0 °F - 42.1 °F 86% 29.92 in 4.0 mi Calm Calm - N/A   Overcast
3:10 PM 46.4 °F 45.2 °F 42.8 °F 87% 29.91 in 4.0 mi SW 3.5 mph - N/A   Overcast
3:48 PM 46.4 °F - 42.8 °F 87% 29.92 in 4.0 mi Calm Calm - N/A   Overcast
3:53 PM 46.0 °F - 43.0 °F 89% 29.93 in 4.0 mi Calm Calm - N/A   Overcast
4:53 PM 46.9 °F - 43.0 °F 86% 29.93 in 4.0 mi Calm Calm - N/A   Overcast
5:19 PM 46.4 °F - 42.8 °F 87% 29.91 in 5.0 mi Calm Calm - N/A   Overcast
5:53 PM 46.0 °F 44.8 °F 42.1 °F 86% 29.93 in 5.0 mi NE 3.5 mph - N/A   Overcast
6:13 PM 44.6 °F 43.1 °F 42.8 °F 93% 29.92 in 4.0 mi ENE 3.5 mph - N/A   Overcast
6:34 PM 44.6 °F 43.1 °F 42.8 °F 93% 29.92 in 4.0 mi NE 3.5 mph - 0.00 in Rain Light Rain
6:53 PM 43.0 °F 40.3 °F 41.0 °F 93% 29.93 in 4.0 mi NE 4.6 mph - 0.01 in Rain Light Rain
7:53 PM 43.0 °F 40.3 °F 41.0 °F 93% 29.93 in 3.0 mi ENE 4.6 mph - 0.02 in Rain Light Rain
8:10 PM 42.8 °F 39.3 °F 41.0 °F 93% 29.91 in 2.5 mi ENE 5.8 mph - 0.00 in Rain Light Rain
8:25 PM 42.8 °F 40.1 °F 41.0 °F 93% 29.91 in 2.5 mi ENE 4.6 mph - 0.01 in Rain Light Rain
8:40 PM 42.8 °F 39.3 °F 41.0 °F 93% 29.91 in 2.5 mi ENE 5.8 mph - 0.01 in Rain Light Rain
8:53 PM 43.0 °F 39.5 °F 41.0 °F 93% 29.92 in 2.5 mi ENE 5.8 mph - 0.01 in Rain Light Rain
9:14 PM 42.8 °F 40.1 °F 41.0 °F 93% 29.91 in 2.0 mi ENE 4.6 mph - 0.01 in Rain Light Rain
9:40 PM 42.8 °F 40.1 °F 41.0 °F 93% 29.90 in 2.0 mi ENE 4.6 mph - 0.03 in Rain Light Rain
9:53 PM 42.1 °F 39.2 °F 41.0 °F 96% 29.91 in 2.0 mi ENE 4.6 mph - 0.04 in Rain Light Rain
10:04 PM 42.8 °F 40.1 °F 41.0 °F 93% 29.90 in 1.8 mi ENE 4.6 mph - 0.00 in Rain Light Rain
10:17 PM 42.8 °F 40.1 °F 41.0 °F 93% 29.89 in 2.0 mi ENE 4.6 mph - 0.01 in Rain Light Rain
10:53 PM 42.1 °F 39.2 °F 41.0 °F 96% 29.89 in 2.0 mi NE 4.6 mph - 0.01 in Rain Light Rain
11:53 PM 43.0 °F 40.3 °F 41.0 °F 93% 29.89 in 2.0 mi NE 4.6 mph - 0.00 in   Overcast